カタログに戻る

QIANFAN-211

運用中通信PO
NORAD 69810·PAYLOAD·🇨🇳 China

打ち上げ Jul 4, 2026 から Taiyuan Satellite Launch Center

Loading…

次のパス (今後24時間)

TLE

最新Source: Space-Track

元期: Sep 14, 2026, 21:58 UTC

1 69810U 26153L   26257.91555489  .00000318  00000-0  15868-3 0  9992
2 69810  88.9981 352.0512 0007379   4.6510 355.4745 14.14538698 10282

AllMySatでQIANFAN-211をリアルタイム追跡

Download on the App Store